Home   Weather   Niš   Past weeks
Flag for Serbia

Past Weather in Niš, Serbia — Yesterday and Last 2 Weeks

Now
64 °F

Partly sunny.


Feels Like: 64 °F
Forecast: 62 / 48 °F
Wind: 26 mph from Northwest

Location: Nis Airport

Current Time: Sep 18, 2019 at 11:26:25 am

Latest Report: Sep 18, 2019 at 11:00 am


Visibility: N/A

Pressure: 30.12 "Hg

Humidity: 49%

Dew Point: 45 °F

Location of NišLocation

Past Weather in Niš — Graph

°F

Niš Temperature Yesterday

Maximum temperature yesterday: 90 °F (at 3:30 pm)
Minimum temperature yesterday: 52 °F (at 5:30 am)
Average temperature yesterday: 70 °F

High & Low Weather Summary for the Past Weeks

 TemperatureHumidityPressure
High90 °F (Sep 17, 3:30 pm)100% (Sep 5, 5:30 am)30.39 "Hg (Sep 5, 5:30 am)
Low50 °F (Sep 5, 5:30 am)16% (Sep 17, 4:30 pm)29.86 "Hg (Sep 17, 5:00 pm)
Average69 °F60%30.10 "Hg
* Reported Sep 3 10:00 am — Sep 18 10:30 am, Niš. Weather by CustomWeather, © 2019

Note: Actual official high and low records may vary slightly from our data, if they occured in-between our weather recording intervals... More about our weather records

Advertising

Niš Weather History for the Previous 24 Hours

Scroll right to see more
 ConditionsComfort  
Time TempWeatherWind HumidityBarometerVisibility
10:30 am
Wed, Sep 18
66 °FPartly sunny.26 mph52%30.09 "HgN/A
10:00 am66 °FPartly sunny.28 mph56%30.09 "HgN/A
9:30 am68 °FPassing clouds.26 mph53%30.07 "HgN/A
9:00 am66 °FPassing clouds.20 mph60%30.07 "HgN/A
8:30 am66 °FPassing clouds.23 mph60%30.04 "HgN/A
8:00 am64 °FPassing clouds.10 mph64%30.04 "HgN/A
7:30 am63 °FPassing clouds.17 mph64%30.01 "HgN/A
7:00 am55 °FSunny.5 mph77%30.01 "Hg10 mi
6:30 am50 °FSunny.1 mph88%29.98 "Hg10 mi
6:00 am52 °FClear.6 mph82%29.95 "Hg10 mi
5:30 am55 °FClear.2 mph72%29.95 "Hg10 mi
5:00 am55 °FClear.1 mph72%29.92 "Hg10 mi
4:30 am55 °FClear.1 mph72%29.92 "Hg10 mi
4:00 am54 °FClear.No wind77%29.92 "Hg10 mi
3:30 am57 °FClear.2 mph67%29.92 "Hg10 mi
3:00 am61 °FClear.5 mph59%29.92 "Hg10 mi
2:30 am61 °FClear.5 mph59%29.92 "Hg10 mi
2:00 am63 °FClear.5 mph56%29.92 "Hg10 mi
1:30 am63 °FPassing clouds.3 mph56%29.92 "HgN/A
1:00 am61 °FClear.3 mph59%29.92 "Hg10 mi
12:30 am63 °FClear.3 mph56%29.92 "Hg10 mi
12:00 am64 °FClear.2 mph52%29.92 "Hg10 mi
11:30 pm
Tue, Sep 17
64 °FClear.6 mph52%29.92 "Hg10 mi
11:00 pm64 °FClear.2 mph52%29.92 "Hg10 mi
10:30 pm63 °FClear.1 mph56%29.92 "Hg10 mi
10:00 pm70 °FClear.2 mph43%29.89 "Hg10 mi
9:30 pm70 °FPassing clouds.5 mph43%29.89 "HgN/A
9:00 pm72 °FPassing clouds.5 mph41%29.89 "HgN/A
8:30 pm73 °FClear.6 mph38%29.89 "Hg10 mi
8:00 pm75 °FClear.6 mph39%29.89 "Hg10 mi
7:30 pm77 °FClear.6 mph34%29.86 "Hg10 mi
7:00 pm79 °FPassing clouds.3 mph34%29.86 "HgN/A
6:30 pm84 °FSunny.2 mph25%29.86 "Hg10 mi
6:00 pm88 °FSunny.2 mph22%29.86 "Hg10 mi
5:30 pm90 °FSunny.1 mph20%29.86 "Hg10 mi
5:00 pm90 °FSunny.1 mph17%29.86 "Hg10 mi
4:30 pm90 °FSunny.2 mph16%29.89 "Hg10 mi
4:00 pm90 °FSunny.1 mph18%29.89 "Hg10 mi
3:30 pm90 °FSunny.2 mph18%29.89 "Hg10 mi
3:00 pm88 °FSunny.2 mph19%29.92 "Hg10 mi
2:30 pm88 °FPassing clouds.3 mph18%29.92 "HgN/A
2:00 pm86 °FPassing clouds.5 mph19%29.95 "HgN/A
1:30 pm86 °FSunny.1 mph24%29.95 "Hg10 mi
1:00 pm84 °FSunny.1 mph25%29.98 "Hg10 mi
12:30 pm82 °FSunny.2 mph32%29.98 "Hg10 mi
12:00 pm79 °FSunny.1 mph37%29.98 "Hg10 mi
11:30 am77 °FSunny.2 mph39%30.01 "Hg10 mi
11:00 am73 °FSunny.1 mph41%30.01 "Hg10 mi
Weather by CustomWeather, © 2019

See weather overview